SCP
-0 0 0 0 -0 -0 -0 0 -0 0 0 0 0 0 0 0 0 -0 -0 -0 -1 -0 -0 -1 -1 -1 -1 -0 -0 -0 -0 0
-0 0 0 0 0 0 0 0 0 -0 0 0 0 0 0 0 0 -0 0 -0 -0 -0 -0 -0 -1 -0 -0 -0 -0 -0 0 0
0 -0 0 0 0 0 0 -0 -0 -0 -0 0 0 0 0 0 1 0 0 0 -0 -0 -0 -0 -0 -0 0 0 0 0 0 0
0 0 0 0 0 0 0 0 0 0 0 0 0 0 0 0 0 0 0 -0 -0 -0 -0 -0 -0 -0 0 0 0 0 0 0
0 0 0 0 0 0 0 0 0 0 0 0 0 0 0 0 0 0 -0 -0 -0 -0 -0 -0 -0 -0 1 0 0 -0 0 0
0 0 0 0 0 0 0 0 0 0 0 0 0 0 0 0 0 -0 -0 0 -0 -1 -0 -0 -0 0 0 0 0 0 0 0
0 0 -0 0 0 0 0 -0 0 -0 -0 0 0 0 0 -0 -0 -0 0 0 -0 -1 -1 -1 -0 -0 1 0 0 0 0 0
0 0 0 0 0 0 0 -0 0 0 -0 0 0 0 0 0 0 -0 0 0 -0 -1 -1 -1 -0 -0 -0 0 0 0 0 0
0 1 0 0 -0 0 0 0 0 0 0 -0 0 1 0 1 1 0 0 0 0 -1 -1 -1 -1 -0 -0 -0 0 0 0 0
0 0 0 0 0 0 0 0 0 0 -0 0 1 1 0 0 0 0 -0 0 0 0 -0 -1 -1 -1 -0 -0 -0 -0 0 0
0 0 0 0 0 0 0 0 0 0 0 0 0 1 1 0 0 0 -0 1 1 0 0 -0 -0 -0 -0 0 0 0 0 0
0 0 0 0 0 -0 -0 0 0 0 1 0 0 0 0 0 0 0 0 1 1 1 1 0 -0 -0 -0 -0 0 0 0 0
0 0 0 0 0 -0 0 0 1 1 1 1 0 0 0 0 1 1 0 0 1 1 1 0 0 -0 0 0 0 0 0 0
0 0 0 0 0 0 0 0 0 2 2 1 -0 0 0 0 1 0 0 0 1 1 2 2 1 0 0 0 0 0 0 0
0 0 1 0 0 0 -0 0 0 1 1 0 1 0 0 0 0 1 1 1 0 2 2 1 1 1 0 0 0 0 1 0
0 0 0 0 0 -0 0 0 0 0 0 0 1 0 0 0 0 0 0 -0 -0 1 1 1 0 0 0 0 0 0 0 0
0 0 0 -0 0 0 0 0 0 0 0 0 0 0 0 0 0 0 0 -0 0 2 2 1 1 1 0 0 0 0 0 0
0 0 0 0 -0 -0 0 0 0 0 0 0 0 0 0 0 -0 -0 -0 0 1 2 2 1 1 1 0 0 0 0 0 0
0 0 0 0 -0 -0 0 0 0 0 0 0 0 0 0 0 -0 -0 -0 0 0 2 1 1 1 1 0 0 0 0 0 -0
Wind_Speed_500mb
37 21 21 16 11 19 13 12 12 12 12 13 22 18 20 56 75 74 83 72 87 89 91 75 79 73 57 48 35 39 45 40
36 16 19 20 13 7 8 7 14 14 8 9 11 14 25 23 64 39 62 84 96 103 90 81 85 69 55 49 37 30 39 40
17 8 18 4 8 9 4 6 6 7 8 13 21 13 18 24 60 37 17 72 91 90 83 84 80 73 64 52 44 35 34 40
24 19 21 13 22 20 10 18 9 8 11 13 17 21 35 31 61 42 34 19 82 79 89 92 85 78 69 56 50 38 33 36
21 14 16 11 12 10 13 10 17 9 11 12 13 29 43 53 32 28 46 33 76 84 93 92 84 77 70 62 53 42 42 41
12 17 12 13 16 18 23 12 11 17 14 15 18 40 34 44 53 47 45 38 76 84 92 94 79 72 67 62 56 48 45 45
21 25 37 33 31 28 37 20 11 22 13 11 12 31 48 62 49 47 34 44 74 76 92 93 80 63 70 63 60 57 47 44
20 25 29 42 38 36 35 25 18 33 23 17 37 41 62 60 55 55 44 36 68 83 88 88 64 64 84 72 66 61 55 45
14 21 30 29 16 22 30 31 18 30 23 12 12 15 44 49 35 13 46 40 39 74 89 77 65 79 79 70 63 58 56 49
18 6 16 13 22 32 22 18 13 48 31 26 25 47 49 37 26 34 38 44 44 70 74 69 66 66 59 57 55 52 48 51
19 15 30 43 31 17 25 49 36 25 20 39 31 48 28 41 60 60 69 51 49 60 61 56 55 51 55 54 53 51 54 56
17 15 43 25 14 47 28 31 26 24 29 26 15 6 8 53 66 53 53 55 53 53 45 50 55 46 48 46 42 41 46 46
23 13 17 10 25 26 5 14 47 28 42 38 22 10 33 33 27 41 31 35 46 42 43 57 63 49 50 51 44 38 37 35
3 2 17 14 12 6 15 51 47 57 38 38 19 35 43 44 29 36 36 33 55 57 49 64 63 59 59 53 47 41 37 34
5 6 7 14 4 14 34 53 50 53 59 45 20 43 48 62 50 45 32 41 39 56 60 60 58 54 53 46 44 42 43 41
10 17 17 23 10 12 14 32 57 48 51 44 32 38 63 71 75 42 83 98 58 67 61 54 52 51 47 49 45 42 39 36
15 29 36 13 9 13 17 40 49 44 42 50 37 25 53 62 77 68 109 80 82 75 62 61 57 52 47 43 39 37 33 30
10 19 9 13 8 14 34 33 47 43 53 51 38 21 28 67 81 67 76 56 68 76 73 68 63 52 46 41 40 36 33 32
26 30 28 10 18 9 23 49 52 29 46 69 49 23 24 33 79 81 66 53 52 77 82 73 63 52 46 45 42 40 34 31
Wind_Direction_500mb
299 199 174 241 259 235 262 276 298 251 264 38 223 272 185 191 204 203 194 196 182 187 185 186 192 197 193 196 191 196 200 200
277 180 211 167 213 321 309 259 269 293 322 185 93 97 84 78 65 357 184 174 175 184 185 185 187 195 199 198 196 196 200 200
254 238 208 193 216 252 228 193 220 300 283 215 183 177 107 103 126 195 111 172 177 182 185 186 189 195 196 197 197 194 205 199
227 243 266 238 197 192 151 277 240 207 272 149 183 127 126 130 145 186 213 206 184 182 185 186 189 190 194 198 201 205 210 192
333 313 258 249 285 250 199 193 235 216 259 216 220 139 150 144 167 189 193 256 194 178 182 182 187 190 195 197 203 208 203 202
231 259 309 311 342 312 282 292 239 237 249 210 219 155 155 172 162 180 222 205 168 174 181 184 181 189 194 196 205 209 203 202
326 322 310 298 297 285 259 249 281 265 275 169 145 146 185 185 169 186 216 162 168 166 182 182 185 194 200 204 205 210 210 205
323 326 314 311 278 283 290 287 286 298 264 206 196 166 156 175 180 174 166 168 177 180 186 189 197 192 201 207 210 208 212 221
283 324 334 293 290 255 271 292 268 284 278 231 141 154 145 138 128 64 158 177 169 183 184 189 194 192 197 205 209 211 212 220
279 27 263 254 329 335 325 308 326 295 315 326 138 145 148 146 138 202 223 187 169 173 175 183 183 187 193 195 201 207 210 215
251 225 264 281 295 311 336 321 300 264 5 355 133 125 123 157 152 169 243 186 179 179 173 177 183 188 188 196 209 213 212 215
240 224 251 286 340 331 344 296 6 2 38 358 180 100 232 169 163 152 164 176 181 183 185 188 194 190 182 183 185 189 194 211
235 251 285 51 344 323 156 311 340 330 64 26 343 257 183 147 102 124 136 173 177 185 192 191 190 182 176 184 195 203 199 201
342 126 272 358 347 46 340 339 336 341 30 28 87 146 142 156 134 151 178 172 179 184 192 189 187 183 181 186 191 197 189 182
301 245 20 19 352 28 21 343 319 327 334 14 82 169 166 163 166 152 159 158 185 188 177 176 184 191 182 181 179 177 180 188
337 335 295 317 278 326 335 333 317 331 323 352 44 143 159 155 155 139 188 195 195 188 186 186 187 182 175 172 181 188 195 196
222 237 262 256 26 352 305 279 302 319 330 341 353 125 177 176 177 175 175 198 180 186 190 186 185 179 180 178 185 186 181 177
272 273 226 185 140 210 283 286 275 323 332 336 328 337 180 199 192 201 212 203 177 184 185 184 186 180 184 189 188 177 181 187
295 294 280 268 216 239 284 273 278 310 320 320 324 317 337 234 212 213 221 204 189 186 186 184 184 185 192 190 183 185 188 176
Wind_Speed_850mb
37 21 21 16 11 19 13 12 12 12 12 13 22 18 20 56 75 74 83 72 87 89 91 75 79 73 57 48 35 39 45 40
36 16 19 20 13 7 8 7 14 14 8 9 11 14 25 23 64 39 62 84 96 103 90 81 85 69 55 49 37 30 39 40
17 8 18 4 8 9 4 6 6 7 8 13 21 13 18 24 60 37 17 72 91 90 83 84 80 73 64 52 44 35 34 40
24 19 21 13 22 20 10 18 9 8 11 13 17 21 35 31 61 42 34 19 82 79 89 92 85 78 69 56 50 38 33 36
21 14 16 11 12 10 13 10 17 9 11 12 13 29 43 53 32 28 46 33 76 84 93 92 84 77 70 62 53 42 42 41
12 17 12 13 16 18 23 12 11 17 14 15 18 40 34 44 53 47 45 38 76 84 92 94 79 72 67 62 56 48 45 45
21 25 37 33 31 28 37 20 11 22 13 11 12 31 48 62 49 47 34 44 74 76 92 93 80 63 70 63 60 57 47 44
20 25 29 42 38 36 35 25 18 33 23 17 37 41 62 60 55 55 44 36 68 83 88 88 64 64 84 72 66 61 55 45
14 21 30 29 16 22 30 31 18 30 23 12 12 15 44 49 35 13 46 40 39 74 89 77 65 79 79 70 63 58 56 49
18 6 16 13 22 32 22 18 13 48 31 26 25 47 49 37 26 34 38 44 44 70 74 69 66 66 59 57 55 52 48 51
19 15 30 43 31 17 25 49 36 25 20 39 31 48 28 41 60 60 69 51 49 60 61 56 55 51 55 54 53 51 54 56
17 15 43 25 14 47 28 31 26 24 29 26 15 6 8 53 66 53 53 55 53 53 45 50 55 46 48 46 42 41 46 46
23 13 17 10 25 26 5 14 47 28 42 38 22 10 33 33 27 41 31 35 46 42 43 57 63 49 50 51 44 38 37 35
3 2 17 14 12 6 15 51 47 57 38 38 19 35 43 44 29 36 36 33 55 57 49 64 63 59 59 53 47 41 37 34
5 6 7 14 4 14 34 53 50 53 59 45 20 43 48 62 50 45 32 41 39 56 60 60 58 54 53 46 44 42 43 41
10 17 17 23 10 12 14 32 57 48 51 44 32 38 63 71 75 42 83 98 58 67 61 54 52 51 47 49 45 42 39 36
15 29 36 13 9 13 17 40 49 44 42 50 37 25 53 62 77 68 109 80 82 75 62 61 57 52 47 43 39 37 33 30
10 19 9 13 8 14 34 33 47 43 53 51 38 21 28 67 81 67 76 56 68 76 73 68 63 52 46 41 40 36 33 32
26 30 28 10 18 9 23 49 52 29 46 69 49 23 24 33 79 81 66 53 52 77 82 73 63 52 46 45 42 40 34 31
Wind_Direction_850mb
299 199 174 241 259 235 262 276 298 251 264 38 223 272 185 191 204 203 194 196 182 187 185 186 192 197 193 196 191 196 200 200
277 180 211 167 213 321 309 259 269 293 322 185 93 97 84 78 65 357 184 174 175 184 185 185 187 195 199 198 196 196 200 200
254 238 208 193 216 252 228 193 220 300 283 215 183 177 107 103 126 195 111 172 177 182 185 186 189 195 196 197 197 194 205 199
227 243 266 238 197 192 151 277 240 207 272 149 183 127 126 130 145 186 213 206 184 182 185 186 189 190 194 198 201 205 210 192
333 313 258 249 285 250 199 193 235 216 259 216 220 139 150 144 167 189 193 256 194 178 182 182 187 190 195 197 203 208 203 202
231 259 309 311 342 312 282 292 239 237 249 210 219 155 155 172 162 180 222 205 168 174 181 184 181 189 194 196 205 209 203 202
326 322 310 298 297 285 259 249 281 265 275 169 145 146 185 185 169 186 216 162 168 166 182 182 185 194 200 204 205 210 210 205
323 326 314 311 278 283 290 287 286 298 264 206 196 166 156 175 180 174 166 168 177 180 186 189 197 192 201 207 210 208 212 221
283 324 334 293 290 255 271 292 268 284 278 231 141 154 145 138 128 64 158 177 169 183 184 189 194 192 197 205 209 211 212 220
279 27 263 254 329 335 325 308 326 295 315 326 138 145 148 146 138 202 223 187 169 173 175 183 183 187 193 195 201 207 210 215
251 225 264 281 295 311 336 321 300 264 5 355 133 125 123 157 152 169 243 186 179 179 173 177 183 188 188 196 209 213 212 215
240 224 251 286 340 331 344 296 6 2 38 358 180 100 232 169 163 152 164 176 181 183 185 188 194 190 182 183 185 189 194 211
235 251 285 51 344 323 156 311 340 330 64 26 343 257 183 147 102 124 136 173 177 185 192 191 190 182 176 184 195 203 199 201
342 126 272 358 347 46 340 339 336 341 30 28 87 146 142 156 134 151 178 172 179 184 192 189 187 183 181 186 191 197 189 182
301 245 20 19 352 28 21 343 319 327 334 14 82 169 166 163 166 152 159 158 185 188 177 176 184 191 182 181 179 177 180 188
337 335 295 317 278 326 335 333 317 331 323 352 44 143 159 155 155 139 188 195 195 188 186 186 187 182 175 172 181 188 195 196
222 237 262 256 26 352 305 279 302 319 330 341 353 125 177 176 177 175 175 198 180 186 190 186 185 179 180 178 185 186 181 177
272 273 226 185 140 210 283 286 275 323 332 336 328 337 180 199 192 201 212 203 177 184 185 184 186 180 184 189 188 177 181 187
295 294 280 268 216 239 284 273 278 310 320 320 324 317 337 234 212 213 221 204 189 186 186 184 184 185 192 190 183 185 188 176